Miscellaneous Local Product
Issued by NWS North Platte, NE

Home | Current Version | Previous Version | Graphics & Text | Print | Product List | Glossary On
Versions: 1 2 3 4 5 6 7 8 9 10 11 12 13 14 15 16 17 18 19 20 21 22 23 24 25 26 27 28 29 30 31 32 33 34 35 36 37 38 39 40 41 42 43 44 45 46 47 48 49 50
000
AXUS43 KLBF 282210
MISLBF


WESTERN AND NORTH CENTRAL NEBRASKA HOURLY WEATHER ROUNDUP
NATIONAL WEATHER SERVICE NORTH PLATTE NE
500 PM CDT SAT MAR 28 2015

***STATIONS NOT REPORTING VARIABLES SUCH AS SKY/WEATHER OR
PRESSURE ARE PROVIDED BY THE NEBRASKA DEPARTMENT OF
ROADS...RAWS...AND APRS NETWORKS...AND ARE NOT UNDER
NATIONAL WEATHER SERVICE QUALITY CONTROL***

...OBSERVATIONS IN AND NEAR THE EASTERN PANHANDLE OF NEBRASKA...

CITY           SKY/WX    TMP DP  RH WIND       PRES   REMARKS
PINE RIDGE     SUNNY     81  26  13 W21G30    29.70F
CHADRON        SUNNY     83  26  12 W25G33    29.70F
ALLIANCE       SUNNY     81  34  18 W17G26    29.78F
SIDNEY         SUNNY     79  27  14 SW16G30   29.84F
CRESCENT LAKE    N/A     81  26  13 SW14G23     N/A
BIG SPRINGS      N/A     81  29  15 SW13        N/A
$$

...OBSERVATIONS IN NORTH CENTRAL NEBRASKA...

CITY           SKY/WX    TMP DP  RH WIND       PRES   REMARKS
VALENTINE      SUNNY     78  32  18 S23G30    29.74F
THEDFORD       SUNNY     78  35  21 S12G32    29.81F
AINSWORTH      SUNNY     71  35  26 SE23G31   29.80F
O`NEILL        SUNNY     62  32  33 SE20G26   29.90F
ORD            SUNNY     63  32  31 S14G28    29.91F
BROKEN BOW     SUNNY     70  36  28 S17       29.88F
SPRINGVIEW       N/A     69  39  33 S15G22      N/A
SARGENT          N/A     66  35  32 S8          N/A
COMSTOCK         N/A     72  35  25 S16         N/A
EWING            N/A     58  37  46 S12         N/A
$$

...OBSERVATIONS IN SOUTHWEST NEBRASKA AND FAR NORTHEAST COLORADO...

CITY           SKY/WX    TMP DP  RH WIND       PRES   REMARKS
WRAY           FAIR      83  23  11 W8G24     29.87F
IMPERIAL         N/A     81  29  15 S13       29.83F
OGALLALA       SUNNY     82  32  16 S12G20    29.81F
NORTH PLATTE   SUNNY     77  34  21 S18G28    29.84F
MCCOOK         SUNNY     81  33  17 S15G22    29.87F
LEXINGTON      SUNNY     71  35  26 S17       29.91F
PAXTON           N/A     78  38  23 S12         N/A
BRADY            N/A     75  39  27 N3          N/A
GOTHENBURG       N/A     70  33  26 S12         N/A
CALLAWAY         N/A     71  40  32 S20         N/A
$$

...NORTH PLATTE AREA...

CITY           SKY/WX    TMP DP  RH WIND       PRES   REMARKS
AIRPORT        SUNNY     77  34  21 S18G28    29.84F
DOWNTOWN         N/A     77  36  23 S12G21      N/A
$$

...SOME WEATHER OBSERVATIONS FROM AROUND THE REGION...

CITY           SKY/WX    TMP DP  RH WIND       PRES   REMARKS
DENVER         MOSUNNY   78  19  11 W17G28    29.94F
LARAMIE        SUNNY     62  20  19 W21G32    30.03F
CHEYENNE       SUNNY     73  19  13 W26G33    29.96F
SCOTTSBLUFF    SUNNY     82  27  13 W18G29    29.78F
RAPID CITY     SUNNY     82  26  13 W17       29.62F
PIERRE         SUNNY     73  36  25 S26       29.69F
WINNER         FAIR      73  34  23 S24G31    29.76F
SIOUX FALLS    SUNNY     53  26  35 S22G30    29.96F
OMAHA          SUNNY     54  29  38 S15G23    30.06F
GRAND ISLAND   SUNNY     62  34  35 SE16      29.97F
KANSAS CITY    MOSUNNY   52  31  44 E12       30.11F
WICHITA        SUNNY     73  38  27 E12       29.97F
HAYS           SUNNY     73  39  29 SE15      29.95F
LIBERAL        SUNNY     81  34  18 SW7       29.95F
GOODLAND       SUNNY     81  22  11 SW14G24   29.90F
$$



USA.gov is the U.S. government's official web portal to all federal, state and local government web resources and services.